Shawano, WI

10:01 AM CST on December 16, 2017 (GMT -0600)
Shawano

Weather History for KEZS - May, 2014

Change the Weather History Date:

Sunday, May 18, 2014

  Actual Average (KCLI) Record (KCLI)
Temperature  
Mean Temperature 59 °F -  
Max Temperature 75 °F 69 °F 89 °F (1972)
Min Temperature 43 °F 45 °F 30 °F (2002)
Degree Days  
Heating Degree Days 6    
Growing Degree Days 9 (Base 50)    
Moisture  
Dew Point 34 °F    
Average Humidity 41    
Maximum Humidity 66    
Minimum Humidity 20    
Precipitation  
Precipitation 0.00 in - - ()
Sea Level Pressure  
Sea Level Pressure 30.07 in    
Wind  
Wind Speed 3 mph (SW)    
Max Wind Speed 13 mph    
Max Gust Speed 22 mph    
Visibility 10 miles    
Events Rain    
Averages and records for this station are not official NWS values.
T = Trace of Precipitation, MM = Missing Value Source: NWS Daily Summary

Daily Weather History Graph

Daily Weather History Graph

Search for Another Location

Airport or City:

Trip Planner

Search our weather history database for the weather conditions in past years. The results will help you decide how hot, cold, wet, or windy it might be!

Date:

Astronomy

May. 18, 2014 Rise Set
Actual Time 5:22 AM CDT 8:19 PM CDT
Civil Twilight 4:48 AM CDT 8:53 PM CDT
Nautical Twilight 4:04 AM CDT 9:38 PM CDT
Astronomical Twilight 3:12 AM CDT 10:30 PM CDT
Moon No Moon Rise 9:13 AM CDT (5/18)
Length of Visible Light 16h 05m
Length of Day
14h 56m
Waning Gibbous, 81% of the Moon is Illuminated
May 18
Waning Gibbous
May 21
Last Quarter
May 28
New
Jun 5
First Quarter
Jun 12
Full

Hourly Weather History & Observations

Time (CDT) Temp. Windchill Dew Point Humidity Pressure Visibility Wind Dir Wind Speed Gust Speed Precip Events Conditions
12:15 AM 49.6 °F - 30.7 °F 48% 30.04 in 10.0 mi Calm Calm - N/A   Clear
12:35 AM 48.0 °F - 31.1 °F 52% 30.05 in 10.0 mi Calm Calm - N/A   Clear
12:55 AM 47.7 °F - 31.6 °F 54% 30.05 in 10.0 mi Calm Calm - N/A   Clear
1:15 AM 47.5 °F - 31.5 °F 54% 30.05 in 10.0 mi Calm Calm - N/A   Clear
1:35 AM 46.9 °F - 31.8 °F 56% 30.06 in 10.0 mi Calm Calm - N/A   Clear
1:55 AM 47.7 °F - 31.1 °F 53% 30.06 in 10.0 mi Calm Calm - N/A   Clear
2:15 AM 47.5 °F - 31.3 °F 53% 30.06 in 10.0 mi Calm Calm - N/A   Clear
2:35 AM 46.4 °F - 31.8 °F 57% 30.06 in 10.0 mi Calm Calm - N/A   Clear
2:55 AM 46.4 °F - 32.0 °F 57% 30.06 in 10.0 mi Calm Calm - N/A   Clear
3:15 AM 46.2 °F - 32.0 °F 58% 30.06 in 10.0 mi Calm Calm - N/A   Clear
3:35 AM 46.4 °F - 32.0 °F 57% 30.07 in 10.0 mi Calm Calm - N/A   Clear
3:55 AM 45.9 °F - 32.0 °F 58% 30.07 in 10.0 mi Calm Calm - N/A   Clear
4:15 AM 45.3 °F - 32.5 °F 61% 30.07 in 10.0 mi Calm Calm - N/A   Clear
4:35 AM 44.4 °F - 32.5 °F 63% 30.07 in 10.0 mi Calm Calm - N/A   Clear
4:55 AM 44.6 °F - 32.9 °F 64% 30.07 in 10.0 mi Calm Calm - N/A   Clear
5:15 AM 44.1 °F - 33.1 °F 65% 30.07 in 10.0 mi Calm Calm - N/A   Clear
5:35 AM 43.9 °F - 33.3 °F 66% 30.08 in 10.0 mi Calm Calm - N/A   Clear
5:55 AM 45.0 °F - 34.0 °F 65% 30.09 in 10.0 mi Calm Calm - N/A   Mostly Cloudy
6:15 AM 45.5 °F - 34.3 °F 65% 30.09 in 10.0 mi Calm Calm - N/A   Mostly Cloudy
6:35 AM 46.4 °F 45.2 °F 34.9 °F 64% 30.09 in 10.0 mi SW 3.5 mph - N/A   Mostly Cloudy
6:55 AM 46.8 °F - 36.0 °F 66% 30.10 in 10.0 mi SW 3.5 mph - N/A Rain Light Rain
7:15 AM 47.5 °F - 36.7 °F 66% 30.09 in 10.0 mi South 3.5 mph - N/A   Overcast
7:35 AM 48.9 °F - 37.0 °F 64% 30.10 in 10.0 mi Calm Calm - N/A   Mostly Cloudy
7:55 AM 49.3 °F - 36.7 °F 62% 30.10 in 10.0 mi Calm Calm - N/A   Mostly Cloudy
8:15 AM 51.6 °F - 38.3 °F 60% 30.10 in 10.0 mi South 3.5 mph - N/A   Mostly Cloudy
8:35 AM 52.2 °F - 37.4 °F 57% 30.10 in 10.0 mi South 3.5 mph - N/A   Mostly Cloudy
8:55 AM 56.1 °F - 39.0 °F 53% 30.10 in 10.0 mi South 6.9 mph - N/A   Scattered Clouds
9:15 AM 58.6 °F - 38.8 °F 48% 30.09 in 10.0 mi SSW 4.6 mph - N/A   Scattered Clouds
9:35 AM 60.6 °F - 39.4 °F 45% 30.09 in 10.0 mi SSW 3.5 mph - N/A   Clear
9:55 AM 63.0 °F - 37.8 °F 39% 30.09 in 10.0 mi SW 8.1 mph - N/A   Clear
10:15 AM 64.8 °F - 36.3 °F 35% 30.10 in 10.0 mi WSW 9.2 mph - N/A   Scattered Clouds
10:35 AM 63.0 °F - 37.0 °F 38% 30.09 in 10.0 mi SSW 6.9 mph - N/A   Clear
10:55 AM 66.7 °F - 37.2 °F 34% 30.09 in 10.0 mi SW 8.1 mph - N/A   Clear
11:15 AM 68.0 °F - 37.4 °F 33% 30.09 in 10.0 mi SW 6.9 mph - N/A   Clear
11:35 AM 68.7 °F - 37.8 °F 32% 30.09 in 10.0 mi SW 9.2 mph - N/A   Clear
11:55 AM 69.6 °F - 38.3 °F 32% 30.08 in 10.0 mi SW 9.2 mph - N/A   Clear
12:15 PM 70.7 °F - 38.1 °F 30% 30.08 in 10.0 mi SSW 5.8 mph - N/A   Clear
12:35 PM 71.6 °F - 38.1 °F 30% 30.07 in 10.0 mi WSW 6.9 mph - N/A   Clear
12:55 PM 71.6 °F - 36.9 °F 28% 30.07 in 10.0 mi SSW 9.2 mph 16.1 mph N/A   Scattered Clouds
1:15 PM 72.0 °F - 32.5 °F 23% 30.06 in 10.0 mi WSW 6.9 mph - N/A   Scattered Clouds
1:35 PM 70.7 °F - 32.5 °F 24% 30.06 in 10.0 mi WSW 8.1 mph 18.4 mph N/A   Mostly Cloudy
1:55 PM 74.1 °F - 32.2 °F 21% 30.06 in 10.0 mi SW 9.2 mph 21.9 mph N/A   Scattered Clouds
2:15 PM 73.4 °F - 32.5 °F 22% 30.06 in 10.0 mi SW 11.5 mph 19.6 mph N/A   Scattered Clouds
2:35 PM 72.1 °F - 30.9 °F 22% 30.06 in 10.0 mi West 12.7 mph 17.3 mph N/A   Mostly Cloudy
2:55 PM 75.0 °F - 31.5 °F 20% 30.05 in 10.0 mi West 11.5 mph 20.7 mph N/A   Scattered Clouds
3:15 PM 72.0 °F - 30.6 °F 22% 30.06 in 10.0 mi WSW 10.4 mph 21.9 mph N/A   Clear
3:35 PM 71.6 °F - 31.8 °F 23% 30.06 in 10.0 mi WSW 11.5 mph 16.1 mph N/A   Clear
3:55 PM 72.5 °F - 31.5 °F 22% 30.05 in 10.0 mi WSW 10.4 mph 17.3 mph N/A   Clear
4:15 PM 71.8 °F - 30.9 °F 22% 30.05 in 10.0 mi SW 8.1 mph 19.6 mph N/A   Scattered Clouds
4:35 PM 71.6 °F - 30.4 °F 22% 30.06 in 10.0 mi West 10.4 mph 16.1 mph N/A   Scattered Clouds
4:55 PM 71.2 °F - 32.0 °F 24% 30.06 in 10.0 mi SSW 8.1 mph 17.3 mph N/A   Mostly Cloudy
5:15 PM 70.9 °F - 32.7 °F 24% 30.06 in 10.0 mi SW 9.2 mph - N/A   Mostly Cloudy
5:35 PM 71.2 °F - 33.6 °F 25% 30.06 in 10.0 mi SSW 4.6 mph - N/A   Mostly Cloudy
5:55 PM 70.9 °F - 32.9 °F 25% 30.06 in 10.0 mi West 5.8 mph - N/A   Mostly Cloudy
6:15 PM 71.1 °F - 33.4 °F 25% 30.06 in 10.0 mi WSW 5.8 mph - N/A   Scattered Clouds
6:35 PM 70.7 °F - 32.5 °F 24% 30.06 in 10.0 mi WSW 6.9 mph - N/A   Scattered Clouds
6:55 PM 70.9 °F - 32.2 °F 24% 30.06 in 10.0 mi WSW 3.5 mph - N/A   Mostly Cloudy
7:15 PM 70.7 °F - 32.7 °F 25% 30.06 in 10.0 mi WSW 4.6 mph - N/A   Scattered Clouds
7:35 PM 69.8 °F - 32.0 °F 25% 30.06 in 10.0 mi SW 5.8 mph - N/A   Scattered Clouds
7:55 PM 69.8 °F - 31.5 °F 24% 30.06 in 10.0 mi SSW 3.5 mph - N/A   Scattered Clouds
8:15 PM 68.4 °F - 32.5 °F 27% 30.06 in 10.0 mi South 3.5 mph - N/A   Mostly Cloudy
8:35 PM 66.7 °F - 33.4 °F 29% 30.06 in 10.0 mi South 3.5 mph - N/A   Mostly Cloudy
8:55 PM 66.4 °F - 33.6 °F 30% 30.06 in 10.0 mi Calm Calm - N/A   Mostly Cloudy
9:15 PM 65.5 °F - 34.9 °F 32% 30.07 in 10.0 mi Calm Calm - N/A   Overcast
9:35 PM 65.3 °F - 34.9 °F 32% 30.08 in 10.0 mi South 3.5 mph - N/A   Overcast
9:55 PM 64.4 °F - 35.6 °F 34% 30.08 in 10.0 mi Calm Calm - N/A   Overcast
10:15 PM 63.3 °F - 35.8 °F 36% 30.09 in 10.0 mi South 3.5 mph - N/A   Mostly Cloudy
10:35 PM 61.9 °F - 36.7 °F 39% 30.09 in 10.0 mi Calm Calm - N/A   Scattered Clouds
10:55 PM 61.2 °F - 36.3 °F 40% 30.09 in 10.0 mi Calm Calm - N/A   Clear
11:15 PM 60.3 °F - 35.8 °F 40% 30.10 in 10.0 mi Calm Calm - N/A   Clear
11:35 PM 59.2 °F - 35.6 °F 41% 30.10 in 10.0 mi Calm Calm - N/A   Clear
11:55 PM 58.5 °F - 35.8 °F 43% 30.11 in 10.0 mi SSW 3.5 mph - N/A   Clear